Weather in Zyryanovskiy

Russia / Sverdlovsk Oblast     57°45′47″N   61°37′43″E
temp.,
°C
wind,
m/s
gust,
m/s
humid.,
%
clouds,
%
prec.,
mm/h
press.,
hPa
HPBL,
m
26 july, mon
mon2623:00+14nw2753100 0.0 1017317
02:00+8wnw38765 0.0 1018154
05:00+7w38815 0.0 1018172
08:00+12w3964100 0.0 1018340
11:00+17wnw464284 0.0 10172119
14:00+18wnw4638100 0.0 10162022
17:00+19w5742100 0.0 10152159
20:00+16w485688 0.0 1015406
27 july, tue
tue2723:00+11wsw310785 0.0 1015224
02:00+10wsw3108616 0.0 1014232
05:00+11sw3107980 0.0 1012282
08:00+14wsw5116776 0.0 1011629
11:00+13wsw4985100 0.3 1010631
14:00+18wnw476014 0.2 10091353
17:00+20w684426 0.7 10082290
20:00+15nnw59516 0.0 1009851
28 july, wed
wed2823:00+10nw39705 0.0 1010316
02:00+7w39875 0.0 1010175
05:00+6w399388 0.0 1010221
08:00+12wnw486251 0.0 1009777
11:00+14wnw595881 0.3 10081617
14:00+13nw4856100 0.7 10091818
17:00+16nw373818 0.7 10092174
20:00+13wnw485136 0.0 1010731
29 july, thu
thu2923:00+7w3777100 0.0 1011128
02:00+7wsw2576100 0.0 1010129
05:00+8w2873100 0.0 1010240
08:00+8sw1397100 1.0 1010133
11:00+13sw237260 1.0 1009757
14:00+17wsw2458100 0.1 10071065
17:00+18wnw235985 0.2 1006607
20:00+14sw389472 1.6 1006290
30 july, fri
fri3023:00+11ssw249898 1.9 100595
02:00+13wsw31098100 0.0 1005252
05:00+11w249881 0.1 100575
08:00+15w249174 0.2 1005277
11:00+21wsw3465100 0.2 1005914
14:00+24wsw34505 0.3 10041648
17:00+24sw345166 0.3 10031316
20:00+20ssw247284 0.1 100397